O3b星座 MPOWER F1星 (O3B MPOWER F1)

导读

SES MPOWER-A F1是SES旗下O3b mPower系列的第一代中地球轨道通信卫星,于2022年12月16日发射升空,属于全球低延迟卫星通信组网项目的组成部分。该卫星配备先进数字成形波束技术,可支持政府关键任务、邮轮宽带接入、移动网络运营商在偏远区域部署4G/5G网络,帮助填补全球未覆盖地区的数字鸿沟。目前该卫星已投入商用服务,为包括库克群岛等偏远区域提供高速、稳定的卫星互联网连接,推动当地社会经济发展。

基本信息
目录编号:
54755
目录名称:
SES MPOWER-A F1
国际标识:
2022-174A
轨道中心:
EARTH
卫星名称:
O3b星座 MPOWER F1星
卫星全名:
O3b星座 MPOWER F1星 (O3B MPOWER F1)
卫星状态:
在轨 (已飞行1319 天)
发射日期:
2022-12-16 UTC
国别 :
(SES)
星等 :
--
轨道信息
数据来源 国际轨道数据 AOE轨道数据
星历时间 2026-07-27T20:08:21+0800
10小时前
查看轨道信息
2026-07-26T15:00:00+0800
1天前
查看轨道信息
半长轴 14444.043km 14444.043km
偏心率 0.0006711 0.000672
轨道倾角 0.048° 0.048°
近地点辐角 156.663° 155.369°
升交点赤经 338.599° 338.924°
平近点角 196.729° 171.071°
近地点 8056.212km 8056.199km
远地点 8075.6km 8075.613km
周期 287.934分钟 287.934分钟
每日圈数 5.001147 5.001147
详细信息
平衡模式:
三轴稳定
覆盖范围:
全球
运营商:
欧洲卫星公司
运营商所在国:
卢森堡
制造商(研发单位):
波音公司
制造商所在国:
美国
使用方式:
暂无
卫星简介
O3b卫星星座分为O3b FM卫星星座和O3b mPOWER卫星星座,前者是由阿莱尼亚宇航公司制造的第一代O3b卫星星座,后者是由波音公司制造的第二代O3b卫星星座。O3b卫星初始星座运行于赤道圆轨道,轨道高度8062公里,能够覆盖全球南北纬45°之间所有地方,在南、北纬45°~62°范围内也能提供一定的服务。该卫星仍在工作。
2D轨道图
3D轨道图
轨道高度分析图
轨道倾角分析图
轨道综合分析图
查看轨道综合分析图